Wind_Speed
5 7 14 18 16 13 3 4 8 6 8 12 18 25 16 15 17 19 19 19 17 18 18 19 15 12 16 21 26 29 29 29 26 24 22 24 23 26 28 29 30 30 33 34
4 16 11 9 10 11 13 14 14 8 9 7 14 29 22 22 24 23 22 23 21 20 18 15 10 12 19 22 24 26 27 28 25 21 22 17 20 24 26 29 32 33 35 34
13 5 10 11 7 10 11 13 8 9 8 11 14 18 7 6 12 19 22 25 23 22 19 15 11 15 18 22 27 27 27 24 21 19 20 17 16 13 21 26 25 37 36 39
11 7 5 9 11 12 13 9 9 6 4 4 6 10 8 2 8 12 15 15 18 21 19 15 13 15 21 21 22 24 24 23 19 18 19 18 15 15 14 19 21 34 39 39
6 7 8 12 8 9 4 4 4 4 5 4 4 5 4 12 8 10 15 14 17 19 19 16 13 16 20 21 24 23 21 19 18 21 21 18 14 12 19 14 27 33 32 32
6 2 4 4 4 7 5 2 3 3 4 5 9 9 3 5 9 22 18 17 14 14 15 9 11 18 21 22 22 23 23 20 19 22 20 18 14 12 13 16 23 25 30 30
3 3 2 2 5 2 4 3 2 2 4 5 4 9 12 15 8 12 15 17 16 16 8 9 14 14 22 24 25 24 23 22 20 21 20 18 15 13 13 18 21 27 27 27
10 5 9 5 4 5 9 5 3 3 3 2 3 7 2 3 5 8 13 15 16 15 14 7 12 16 21 24 24 25 25 23 20 20 20 18 16 14 14 18 20 23 28 28
7 2 2 3 3 5 5 4 0 2 4 4 4 5 5 6 9 12 13 17 21 20 16 12 14 15 22 26 25 24 24 22 22 21 20 18 16 15 14 15 19 22 27 30
5 6 0 3 3 2 2 4 3 2 2 3 4 6 6 7 13 16 19 19 19 22 20 9 12 15 20 22 22 22 23 22 22 21 21 19 16 14 13 14 17 20 22 30
4 3 4 5 4 7 4 2 2 1 2 2 2 2 2 8 13 13 16 18 17 20 14 2 6 14 18 19 20 20 22 22 23 23 20 20 17 16 14 14 13 17 22 26
2 3 4 3 1 4 2 4 4 2 2 2 4 6 4 12 14 12 14 14 15 20 12 5 6 10 15 17 19 19 21 22 22 20 18 19 18 18 17 14 15 16 16 17
4 1 5 3 3 2 3 4 2 3 2 5 4 3 3 17 16 16 13 13 13 18 13 4 6 7 9 13 17 19 20 21 19 18 18 17 18 17 18 17 17 17 16 15
2 3 1 3 5 3 2 3 2 3 3 5 10 17 21 17 19 16 11 12 13 15 17 14 5 7 10 13 14 15 17 19 19 17 16 15 17 15 16 16 17 18 19 17
3 4 4 2 4 3 3 6 6 7 12 7 16 16 22 19 18 7 7 10 14 17 17 16 14 11 9 11 12 11 12 14 15 14 14 14 13 13 12 12 13 14 16 18
4 2 2 2 1 4 6 11 10 10 10 13 17 20 14 11 12 6 8 11 13 14 14 14 15 15 13 17 15 16 13 10 11 9 6 7 8 9 10 10 10 10 11 11
2 3 2 3 2 7 4 1 4 7 8 9 13 14 16 9 12 9 9 11 13 13 12 14 14 13 16 17 17 18 20 23 22 19 15 14 10 9 5 8 9 11 12 14
3 3 1 2 4 1 2 8 3 5 12 11 13 17 13 4 12 12 10 10 14 12 11 12 11 17 19 17 20 20 22 24 21 22 18 15 13 13 11 10 9 8 5 5
2 3 2 1 1 4 2 4 5 9 15 14 13 18 18 15 16 13 11 11 11 13 8 12 15 18 20 23 22 29 23 23 19 24 20 15 15 16 16 15 12 11 11 14
4 2 2 1 2 2 2 10 11 8 3 15 14 18 16 18 5 4 11 9 12 12 18 14 16 20 23 22 25 28 28 25 28 24 17 17 19 21 20 18 18 15 17 20
2 1 3 2 2 5 10 15 10 3 5 9 15 13 22 11 9 10 10 12 15 18 17 16 23 24 22 21 26 33 24 23 23 19 18 19 21 22 19 22 22 22 24 25
1 2 2 2 3 3 14 5 5 3 2 8 11 14 15 15 13 12 13 14 15 16 19 20 24 23 26 28 25 24 24 17 19 20 21 21 23 21 19 22 24 22 21 22
2 4 3 4 3 6 8 9 9 11 7 10 10 11 11 13 13 12 13 14 15 19 20 22 22 22 28 30 27 24 20 16 18 21 20 22 23 22 21 23 22 22 21 21
7 8 2 2 6 10 12 11 12 11 11 13 12 11 10 13 11 12 12 12 13 22 23 23 25 26 26 27 27 24 16 15 17 20 21 21 24 23 24 27 25 22 21 20
3 7 7 2 8 7 13 12 10 11 10 13 13 13 13 12 14 12 13 13 18 20 22 22 22 22 23 22 22 18 17 13 15 16 17 16 20 25 28 32 26 27 29 21
5 4 3 3 4 9 8 10 11 11 12 12 12 15 17 16 14 15 14 18 19 20 19 20 20 19 18 18 20 18 14 12 13 15 15 15 16 17 18 21 27 32 31 30
Wind_Direction
184 213 220 215 220 229 219 247 265 277 275 288 278 282 287 281 278 277 268 262 267 270 274 275 271 242 205 193 191 192 183 185 186 193 198 208 210 217 215 212 209 206 196 193
162 232 222 211 208 222 237 258 265 277 257 282 292 287 288 271 263 259 257 255 254 260 262 265 247 208 205 191 185 182 181 181 182 189 193 202 206 219 214 215 211 213 210 199
208 201 203 183 192 212 225 237 246 263 292 278 291 284 274 274 251 253 251 252 254 249 250 256 226 208 203 192 185 180 178 174 182 184 190 203 215 222 213 214 206 209 212 202
224 204 153 183 218 213 245 214 232 239 291 271 13 296 280 283 287 266 265 257 247 247 245 247 226 206 202 191 181 176 175 174 181 184 189 199 207 211 216 211 205 196 202 197
193 168 191 218 197 181 225 145 184 211 248 282 240 242 324 281 300 332 328 293 256 247 247 243 216 204 191 179 172 172 170 172 177 182 191 192 205 218 218 211 186 178 183 172
174 142 173 215 150 179 146 199 264 219 224 254 228 216 284 307 358 330 337 333 325 295 260 237 195 178 177 175 166 168 167 172 176 185 191 195 196 192 184 169 155 153 162 163
119 164 160 166 122 101 161 163 188 197 201 244 187 213 264 313 353 344 341 340 339 330 298 183 178 177 176 175 174 166 170 170 172 182 188 195 190 187 184 175 161 153 154 156
188 202 187 183 190 176 173 200 223 242 216 196 232 233 233 28 358 12 9 355 344 339 325 240 197 179 183 174 176 171 171 168 171 176 184 188 189 184 187 184 167 162 163 167
164 125 90 155 141 165 156 201 293 259 236 259 231 258 209 14 4 14 19 10 352 337 318 278 206 187 183 177 176 175 169 164 169 174 177 177 175 182 181 184 182 164 168 180
184 118 149 154 113 77 187 131 178 203 236 245 243 255 239 358 348 352 4 5 3 341 329 282 196 183 182 178 167 164 168 165 167 170 179 181 179 177 183 185 184 181 173 173
162 126 159 157 196 164 157 167 228 300 229 280 301 259 146 11 344 335 355 356 8 347 350 24 180 172 172 160 161 159 163 161 162 171 172 180 180 182 180 184 186 188 194 188
211 111 139 110 115 164 138 157 186 190 142 268 276 265 92 8 8 1 355 0 4 359 347 43 142 151 153 151 151 158 160 160 165 168 167 174 180 186 190 191 188 186 182 186
186 120 124 122 103 73 108 87 144 156 209 247 276 268 276 336 348 360 3 7 15 17 352 45 105 130 137 146 152 158 161 160 162 165 171 181 181 180 192 196 200 200 196 195
80 93 57 122 106 124 156 212 247 188 235 279 264 288 296 313 318 339 15 16 26 27 8 12 93 116 129 135 141 157 161 161 161 170 178 179 185 186 187 193 197 201 202 199
63 86 41 53 139 165 217 240 241 234 252 256 278 285 290 302 304 330 49 39 35 30 14 17 17 44 70 99 111 135 146 153 156 169 186 190 183 182 187 191 194 196 201 205
8 95 74 286 93 155 243 248 256 260 260 254 271 281 288 314 312 97 70 61 50 33 15 20 22 30 41 50 62 64 57 140 144 150 166 188 192 194 198 196 194 198 204 207
65 123 144 228 321 304 254 50 314 281 284 290 291 298 320 320 49 56 72 75 68 42 17 22 25 24 34 48 53 65 67 74 82 84 75 79 108 107 133 213 220 223 225 226
122 96 30 279 295 166 132 317 293 293 297 331 318 311 307 128 94 59 39 85 77 57 23 23 22 32 35 46 60 60 66 73 66 65 59 57 70 74 76 87 93 96 112 125
126 141 128 263 259 286 96 37 353 342 316 6 321 304 287 140 103 58 50 42 60 77 31 31 28 35 44 48 54 61 56 65 66 57 49 48 61 68 65 59 58 75 90 84
96 41 309 290 348 322 57 336 319 301 294 2 343 331 284 162 126 77 45 42 58 48 60 30 36 39 41 48 59 60 55 49 49 47 42 47 59 62 64 63 62 69 88 92
91 110 233 230 279 275 358 325 313 336 348 0 9 16 56 65 65 85 66 49 46 49 46 48 44 39 32 42 53 61 53 53 55 56 52 54 59 62 65 71 70 75 79 83
296 211 210 183 206 283 354 359 25 356 70 51 33 31 56 73 67 65 57 49 42 45 41 39 52 39 34 39 51 60 56 51 61 61 57 55 59 59 64 71 70 70 75 74
101 13 321 338 45 49 36 58 27 31 51 55 60 56 59 65 61 58 61 53 47 46 45 42 48 50 39 39 37 47 46 49 62 66 59 60 63 62 62 65 63 61 63 67
4 23 301 321 62 58 47 50 45 40 48 54 57 64 67 75 65 61 57 53 50 45 42 40 42 41 36 35 40 41 43 54 62 67 65 61 65 67 63 61 61 62 59 64
351 322 324 61 127 98 43 38 37 38 46 62 58 57 65 73 68 66 61 55 52 51 47 46 48 47 43 40 39 36 39 55 69 70 73 73 70 71 70 66 65 68 65 71
346 345 344 23 346 84 52 44 45 52 44 48 63 63 58 63 69 69 65 60 58 55 53 54 53 53 47 46 45 38 41 58 76 76 72 72 74 76 78 81 76 67 70 69
Height
743 746 742 741 740 742 746 749 751 748 741 739 730 713 718 714 710 706 704 701 697 694 689 687 688 689 693 696 700 705 712 719 724 732 737 742 743 746 749 751 754 759 764 766
743 737 737 739 743 744 745 747 747 745 737 737 729 705 706 703 698 697 693 687 686 686 683 681 684 686 689 691 695 701 708 713 720 727 732 737 739 742 744 747 750 754 758 763
733 730 729 735 741 745 744 744 747 746 739 732 729 703 695 691 688 683 680 678 677 674 673 672 678 680 685 687 691 696 703 708 717 722 728 734 737 739 740 742 741 746 751 757
728 724 731 735 736 739 741 736 738 743 744 739 729 714 693 691 684 678 675 672 670 667 666 664 669 673 678 684 691 696 702 706 714 719 725 729 732 734 735 737 736 738 744 748
723 727 732 731 729 734 734 734 737 740 742 740 734 737 697 687 678 674 672 665 662 659 657 656 661 669 675 682 686 694 700 705 711 716 722 726 729 731 733 732 733 736 741 747
719 724 725 724 726 727 731 735 736 737 737 739 723 724 696 686 685 681 673 666 661 656 655 655 659 666 671 680 685 690 696 703 709 714 720 724 726 728 730 731 732 732 739 747
724 724 725 725 728 733 733 737 735 740 740 727 718 725 696 687 692 689 681 674 666 660 653 656 659 662 668 675 680 686 694 701 707 713 718 722 724 726 728 730 731 734 740 746
719 728 724 722 721 726 732 732 726 727 727 722 715 709 690 690 689 684 679 673 668 663 657 656 658 659 667 671 679 684 690 698 706 712 717 721 723 725 728 730 731 733 738 745
717 721 722 721 721 722 731 733 728 732 726 724 707 691 689 684 682 676 672 667 667 664 660 654 656 657 663 668 676 683 690 696 703 711 716 720 722 724 727 730 733 735 739 744
709 719 720 721 721 724 722 726 734 736 731 725 700 696 686 688 686 679 673 668 665 665 652 645 648 654 663 670 676 683 690 695 702 710 715 720 722 725 728 730 734 737 740 743
704 705 723 719 721 722 727 730 733 731 728 716 711 692 686 691 686 682 677 674 669 669 660 653 654 657 663 670 677 683 690 695 702 709 714 719 722 725 728 731 734 737 742 746
707 709 714 718 719 719 718 720 723 729 724 726 721 700 686 689 686 684 682 679 677 672 665 662 661 662 667 670 676 684 689 694 701 707 712 717 721 724 728 731 735 738 742 746
705 712 713 724 722 721 721 732 739 738 741 724 721 695 685 686 685 684 686 685 682 678 671 666 664 666 669 675 678 684 688 692 699 705 711 715 719 722 726 729 733 737 741 745
706 714 710 708 717 725 731 725 724 727 730 717 715 706 693 690 689 685 690 690 689 687 683 674 670 671 674 678 681 686 689 692 697 704 710 714 717 720 724 727 731 735 738 742
709 714 719 722 723 726 725 723 721 725 718 723 704 706 694 694 690 690 695 695 696 695 697 692 686 682 680 681 684 687 691 693 697 703 709 713 716 719 723 726 730 733 737 739
722 726 728 724 724 724 724 717 716 718 717 714 710 702 695 690 687 694 698 699 703 706 708 705 701 695 690 688 690 691 693 695 699 704 709 712 715 718 721 725 728 731 734 737
729 731 734 730 730 725 722 718 712 709 708 708 707 696 697 695 703 705 707 709 711 715 717 712 709 706 703 699 697 696 697 698 702 705 710 711 713 715 718 721 725 728 731 734
733 734 738 733 735 728 711 710 711 711 709 708 709 706 699 703 714 719 719 717 717 722 724 721 718 715 711 707 703 702 701 705 710 711 714 716 716 717 719 721 724 725 727 730
732 734 738 737 729 719 711 712 713 712 709 727 723 713 707 711 714 726 728 728 726 721 732 728 726 721 717 713 710 704 713 715 720 715 721 723 721 721 722 724 727 727 728 730
734 733 732 740 732 730 716 718 714 712 710 733 731 718 684 695 702 731 735 737 736 732 728 735 732 726 722 722 719 716 714 721 720 725 731 730 725 724 726 729 731 732 731 733
739 740 736 736 732 721 735 725 711 712 731 741 738 733 718 722 726 739 742 742 741 739 736 738 733 732 733 730 724 719 729 733 731 737 738 736 732 731 734 734 735 737 738 739
730 733 732 729 730 730 742 722 727 738 745 745 746 744 740 740 744 746 746 746 747 744 747 741 737 744 740 735 736 738 740 745 742 741 743 743 739 741 741 739 741 742 744 745
738 752 749 739 739 755 758 757 759 753 752 750 751 753 753 752 752 754 755 756 755 756 754 752 748 745 745 744 746 745 749 753 750 750 752 749 746 748 748 745 745 748 749 750
763 762 753 755 763 765 764 765 765 764 763 761 761 762 761 760 763 763 763 763 763 760 758 758 755 752 753 754 756 756 762 760 757 757 756 758 757 756 755 752 754 757 758 759
774 769 766 756 762 765 773 774 773 772 771 769 770 770 769 770 771 772 772 772 771 771 770 769 769 770 770 769 767 770 767 766 764 764 763 767 765 763 764 764 766 766 767 767
781 779 769 768 772 774 782 783 782 780 778 777 776 776 777 776 777 778 779 780 781 781 782 782 782 782 782 781 779 778 775 773 771 770 771 770 770 771 773 775 775 775 774 773